#timestamp,LO_Frequency,Hit,StdDev 
1543557615.1,286047007.4,N
1543557616.0,286047007.4,N
1543557635.8,286047004.7,N
1543557655.6,286047006.3,N
1543557675.5,286047006.1,N
1543557695.3,286047010.1,Y
1543557715.2,286047007.2,P
1543557735.9,286047007.5,P
1543557755.7,286047005.7,P
1543557775.6,286047007.5,Y
1543557795.4,286046999.9,P
1543557815.2,286047002.7,N
1543557835.1,286047001.3,N
1543557836.0,286047001.3,N
1543557855.8,286047001.9,N
1543557875.7,286047002.0,N
1543557895.5,286047002.0,N
1543557915.3,286047004.1,N
1543557935.2,286047005.7,Y
1543557955.0,286047003.1,P
1543557955.9,286047003.1,P
1543557975.8,286047004.2,P
1543557995.6,286047001.6,N
1543558015.4,286047001.4,N
1543558035.3,286047001.8,N
1543558055.1,286047005.5,Y
1543558075.8,286047002.0,P
1543558095.7,286047002.4,P
1543558115.5,286047001.9,P
1543558135.4,286047002.8,Y
1543558155.2,286046999.3,P
1543558175.0,286047000.2,N
1543558175.9,286047000.2,N
1543558195.8,286047002.1,N
1543558215.6,286046999.8,N
1543558235.5,286047002.5,N
1543558255.3,286047001.8,N
1543558275.1,286047001.7,N
1543558295.9,286047001.5,N
1543558315.7,286047004.1,Y
1543558335.5,286047000.0,P
1543558355.4,286046999.9,N
1543558375.2,286047003.8,P
1543558395.1,286047004.2,N
1543558396.0,286047004.2,N
1543558415.8,286047005.5,N
1543558435.6,286047004.3,N
1543558455.5,286047001.3,N
1543558475.3,286047004.3,N
1543558495.2,286047005.9,Y
1543558515.9,286047003.9,P
1543558535.7,286047002.6,P
1543558555.6,286047001.7,N
1543558575.4,286047003.8,Y
1543558595.3,286047001.8,P
1543558615.1,286047005.8,P
1543558616.0,286047005.8,P
1543558635.8,286047004.8,N
1543558655.7,286047005.6,Y
1543558675.5,286047001.5,P
1543558695.4,286047002.6,N
1543558715.2,286047004.3,P
1543558735.0,286047005.6,Y
1543558735.9,286047005.6,P
1543558755.8,286047000.0,N
1543558775.6,286047002.1,N
1543558795.5,286047003.6,N
1543558815.3,286047004.1,N
1543558835.1,286047005.1,N
1543558855.9,286047005.3,Y
1543558875.7,286046999.8,P
1543558895.6,286047000.7,N
1543558915.4,286047000.0,N
1543558935.2,286047001.8,N
1543558955.1,286047004.1,Y
1543558956.0,286047004.1,P
1543558975.8,286047002.1,N
1543558995.6,286047001.5,N
1543559015.5,286047002.5,N
1543559035.3,286047001.3,N
1543559055.2,286047004.3,Y
1543559075.0,286046999.8,P
1543559075.9,286046999.8,N
1543559095.7,286047004.1,P
1543559115.6,286047001.3,N
1543559135.4,286047001.7,N
1543559155.3,286047004.1,N
1543559175.1,286047004.7,N
1543559176.0,286047004.7,N
1543559195.8,286047003.7,N
1543559215.7,286047005.3,N
1543559235.5,286047006.0,Y
1543559255.4,286047002.6,P
1543559275.2,286047002.6,P
1543559295.0,286046999.8,N
1543559295.9,286046999.8,N
1543559315.8,286047001.0,N
1543559335.6,286046999.9,N
1543559355.4,286046999.7,N
1543559375.3,286046999.7,N
1543559395.1,286047000.1,N
1543559415.9,286047004.3,Y
1543559435.7,286047002.6,P
1543559455.5,286047002.6,N
1543559475.4,286047003.2,P
1543559495.2,286047005.1,Y
1543559515.1,286047001.3,P
1543559516.0,286047001.3,N
1543559535.8,286047001.8,P
1543559555.6,286047002.4,Y
1543559575.5,286047002.7,P
1543559595.3,286046999.9,N
1543559615.1,286046999.9,N
1543559635.9,286046998.5,N
1543559655.7,286047001.0,N
1543559675.6,286047000.3,N
1543559695.4,286047002.4,N
1543559715.2,286047002.6,N
1543559735.1,286047002.8,N
1543559736.0,286047002.8,N
1543559755.8,286047000.5,N
1543559775.7,286047002.3,N
1543559795.5,286047001.0,N
1543559815.3,286046999.9,N
1543559835.2,286047001.1,N
1543559855.0,286046998.2,N
1543559855.9,286046998.2,N
1543559875.7,286047000.7,N
1543559895.6,286046999.7,N
1543559915.4,286047002.0,N
1543559935.3,286047002.6,N
1543559955.1,286046999.8,N
1543559956.0,286046999.8,N
1543559975.8,286047001.9,N
1543559995.7,286047001.6,N
1543560015.5,286047002.5,N
1543560035.3,286046999.7,N
1543560055.2,286047001.6,N
1543560075.0,286047002.5,N
1543560075.9,286047002.5,N
1543560095.8,286047002.5,N
1543560115.6,286047002.1,N
1543560135.4,286047003.9,N
1543560155.3,286047002.2,N
1543560175.1,286047002.0,N
1543560195.9,286047001.7,N
1543560215.7,286047002.4,N
1543560235.5,286047000.0,N
1543560255.4,286047000.6,N
1543560275.2,286047002.8,N
1543560295.0,286046998.2,N
1543560295.9,286046998.2,N
1543560315.8,286047002.4,N
1543560335.6,286047000.8,N
1543560355.5,286046998.5,N
1543560375.3,286047000.9,N
1543560395.1,286047000.6,N
1543560415.9,286046998.1,N
1543560435.7,286047001.2,N
1543560455.5,286046996.9,N
1543560475.4,286046996.6,N
1543560495.2,286046999.6,N
1543560515.1,286046996.9,N
1543560516.0,286046996.9,N
1543560535.8,286046996.7,N
1543560555.6,286046997.2,N
1543560575.5,286046997.7,N
1543560595.3,286046997.0,N
1543560615.2,286046996.9,N
1543560635.9,286046999.2,N
1543560655.7,286046998.4,N
1543560675.6,286047000.8,N
1543560695.4,286046999.4,N
1543560715.2,286046995.4,N
1543560735.1,286046997.5,N
1543560736.0,286046997.5,N
1543560755.8,286046995.4,N
1543560775.7,286046995.7,N
1543560795.5,286046994.9,N
1543560815.3,286046997.1,N
1543560835.2,286046999.1,N
1543560855.0,286046998.4,N
1543560855.9,286046998.4,N
1543560875.7,286046996.8,N
1543560895.6,286046995.0,Y
1543560915.4,286046998.8,P
1543560935.3,286046996.8,P
1543560955.1,286046996.8,P
1543560975.8,286046997.4,Y
1543560995.7,286046999.2,P
1543561015.5,286046999.6,N
1543561035.4,286046996.8,P
1543561055.2,286046997.1,N
1543561075.0,286046999.2,N
1543561075.9,286046999.2,N
1543561095.8,286046997.8,N
1543561115.6,286046995.3,Y
1543561135.5,286046999.3,P
1543561155.3,286046999.2,N
1543561175.1,286046996.5,P
1543561195.9,286046998.3,N
